ASA546 KSAN-MMSD

Flight info

Callsign ASA546
Flight time N/A
Altitude 37000
Route ZZOOO4 CENZA DCT TIJ UT6 IMUSU UT25 LTO/N0376F170 V4 ENEKO ENEKO1A
Aircraft B739/M-SDE2E3FGHIRWXY/LB1

Departure

Time 2026-04-21 22:22
Airport San Diego International Airport (KSAN)

Arrival

Time N/A
Airport Los Cabos International Airport (MMSD)
Time Latitude Longitude Altitude Speed Heading
2026-04-21 21:55 32.73264 -117.20606 23 ft 0 kts 182°
2026-04-21 22:09 32.73279 -117.20606 24 ft 1 kts 179°
2026-04-21 22:09 32.73305 -117.20609 23 ft 4 kts 165°
2026-04-21 22:09 32.73329 -117.20621 22 ft 4 kts 136°
2026-04-21 22:10 32.73340 -117.20642 22 ft 1 kts 91°
2026-04-21 22:12 32.73340 -117.20644 22 ft 1 kts 91°
2026-04-21 22:12 32.73340 -117.20648 22 ft 0 kts 91°
2026-04-21 22:14 32.73340 -117.20638 22 ft 5 kts 91°
2026-04-21 22:14 32.73357 -117.20574 22 ft 11 kts 41°
2026-04-21 22:14 32.73449 -117.20559 22 ft 16 kts
2026-04-21 22:14 32.73541 -117.20471 22 ft 19 kts 50°
2026-04-21 22:15 32.73581 -117.20328 23 ft 20 kts 105°
2026-04-21 22:15 32.73544 -117.20173 22 ft 19 kts 106°
2026-04-21 22:15 32.73507 -117.20025 22 ft 18 kts 105°
2026-04-21 22:15 32.73473 -117.19880 24 ft 18 kts 106°
2026-04-21 22:16 32.73439 -117.19741 22 ft 17 kts 106°
2026-04-21 22:16 32.73402 -117.19591 23 ft 20 kts 106°
2026-04-21 22:16 32.73363 -117.19425 24 ft 21 kts 107°
2026-04-21 22:16 32.73336 -117.19315 21 ft 20 kts 105°
2026-04-21 22:17 32.73296 -117.19149 23 ft 20 kts 106°
2026-04-21 22:17 32.73258 -117.18995 23 ft 19 kts 106°
2026-04-21 22:17 32.73222 -117.18846 23 ft 18 kts 106°
2026-04-21 22:17 32.73187 -117.18702 24 ft 18 kts 106°
2026-04-21 22:18 32.73154 -117.18563 21 ft 17 kts 106°
2026-04-21 22:18 32.73122 -117.18431 21 ft 17 kts 106°
2026-04-21 22:18 32.73090 -117.18300 21 ft 16 kts 106°
2026-04-21 22:18 32.73060 -117.18175 21 ft 15 kts 106°
2026-04-21 22:19 32.73032 -117.18056 21 ft 15 kts 106°
2026-04-21 22:19 32.73004 -117.17942 21 ft 14 kts 106°
2026-04-21 22:19 32.72976 -117.17832 21 ft 13 kts 107°
2026-04-21 22:19 32.72950 -117.17732 21 ft 11 kts 102°
2026-04-21 22:20 32.72952 -117.17692 21 ft 2 kts 76°
2026-04-21 22:20 32.72952 -117.17689 21 ft 1 kts 76°
2026-04-21 22:20 32.72965 -117.17638 23 ft 11 kts 65°
2026-04-21 22:20 32.73012 -117.17579 21 ft 8 kts 350°
2026-04-21 22:21 32.73031 -117.17621 21 ft 0 kts 285°
2026-04-21 22:21 32.73031 -117.17624 23 ft 2 kts 285°
2026-04-21 22:22 32.73102 -117.17917 21 ft 80 kts 286°
2026-04-21 22:22 32.73330 -117.18855 23 ft 153 kts 286°
2026-04-21 22:22 32.73662 -117.20218 469 ft 178 kts 286°
2026-04-21 22:22 32.73996 -117.21618 1522 ft 176 kts 285°
2026-04-21 22:23 32.74347 -117.23062 2185 ft 190 kts 286°
2026-04-21 22:23 32.74730 -117.24672 2462 ft 215 kts 284°
2026-04-21 22:23 32.75155 -117.26475 2718 ft 239 kts 284°
2026-04-21 22:23 32.75615 -117.28389 3376 ft 242 kts 285°
2026-04-21 22:24 32.76088 -117.30325 4216 ft 242 kts 285°
2026-04-21 22:24 32.76516 -117.32245 5134 ft 242 kts 276°
2026-04-21 22:24 32.76252 -117.34191 5967 ft 242 kts 243°
2026-04-21 22:24 32.75144 -117.35720 6755 ft 247 kts 215°
2026-04-21 22:25 32.73528 -117.36456 7506 ft 255 kts 187°
2026-04-21 22:25 32.71785 -117.36193 8253 ft 263 kts 159°
2026-04-21 22:25 32.70271 -117.34972 9022 ft 270 kts 137°
2026-04-21 22:25 32.69029 -117.33262 9745 ft 275 kts 131°
2026-04-21 22:26 32.67846 -117.31454 10487 ft 277 kts 131°
2026-04-21 22:26 32.66650 -117.29660 11261 ft 278 kts 133°
2026-04-21 22:26 32.65431 -117.27878 12005 ft 279 kts 135°
2026-04-21 22:26 32.64197 -117.26100 12726 ft 281 kts 135°
2026-04-21 22:27 32.63000 -117.24243 13379 ft 290 kts 124°
2026-04-21 22:27 32.62192 -117.21944 13658 ft 315 kts 114°
2026-04-21 22:27 32.61493 -117.19496 13810 ft 337 kts 114°
2026-04-21 22:27 32.60727 -117.16860 13986 ft 357 kts 114°
2026-04-21 22:28 32.59868 -117.14008 14141 ft 377 kts 114°
2026-04-21 22:28 32.58949 -117.11025 14411 ft 391 kts 114°
2026-04-21 22:28 32.58001 -117.07973 14929 ft 397 kts 115°
2026-04-21 22:28 32.57049 -117.04952 15536 ft 400 kts 115°
2026-04-21 22:29 32.56075 -117.01873 16140 ft 403 kts 115°
2026-04-21 22:29 32.55066 -116.98756 16680 ft 406 kts 118°
2026-04-21 22:29 32.53703 -116.95844 17165 ft 404 kts 130°
2026-04-21 22:29 32.51922 -116.93285 17714 ft 401 kts 140°
2026-04-21 22:30 32.49801 -116.91093 18259 ft 400 kts 146°
2026-04-21 22:30 32.47609 -116.89011 18772 ft 403 kts 147°
2026-04-21 22:30 32.46153 -116.87641 19104 ft 406 kts 147°
2026-04-21 22:30 32.43879 -116.85494 19619 ft 409 kts 147°
2026-04-21 22:31 32.41654 -116.83379 20101 ft 412 kts 146°
2026-04-21 22:31 32.39442 -116.81265 20594 ft 415 kts 146°
2026-04-21 22:31 32.37190 -116.79106 21029 ft 419 kts 146°
2026-04-21 22:31 32.34919 -116.76922 21464 ft 422 kts 146°
2026-04-21 22:32 32.32636 -116.74726 21948 ft 424 kts 146°
2026-04-21 22:32 32.30338 -116.72517 22410 ft 427 kts 146°
2026-04-21 22:32 32.28023 -116.70293 22829 ft 430 kts 146°
2026-04-21 22:32 32.25661 -116.68026 23238 ft 433 kts 146°
2026-04-21 22:33 32.23322 -116.65783 23635 ft 436 kts 146°
2026-04-21 22:33 32.20958 -116.63516 24024 ft 438 kts 146°
2026-04-21 22:33 32.18584 -116.61242 24415 ft 441 kts 146°
2026-04-21 22:33 32.16196 -116.58957 24801 ft 443 kts 146°
2026-04-21 22:34 32.13772 -116.56622 25172 ft 446 kts 146°
2026-04-21 22:34 32.11387 -116.54269 25515 ft 449 kts 145°
2026-04-21 22:34 32.08997 -116.51883 25859 ft 452 kts 144°
2026-04-21 22:34 32.06599 -116.49483 26194 ft 454 kts 145°
2026-04-21 22:35 32.04179 -116.47064 26466 ft 457 kts 145°
2026-04-21 22:35 32.01743 -116.44638 26783 ft 459 kts 145°
2026-04-21 22:35 31.99304 -116.42214 27139 ft 461 kts 145°
2026-04-21 22:35 31.96837 -116.39766 27453 ft 463 kts 145°
2026-04-21 22:36 31.91599 -116.34581 28034 ft 470 kts 145°
2026-04-21 22:36 31.89092 -116.32102 28364 ft 471 kts 145°
2026-04-21 22:36 31.86581 -116.29620 28675 ft 473 kts 145°
2026-04-21 22:37 31.84090 -116.27160 28967 ft 475 kts 145°
2026-04-21 22:37 31.81565 -116.24667 29339 ft 475 kts 145°
2026-04-21 22:37 31.79036 -116.22170 29783 ft 473 kts 146°
2026-04-21 22:37 31.76521 -116.19691 30249 ft 471 kts 146°
2026-04-21 22:38 31.74020 -116.17230 30683 ft 469 kts 146°
2026-04-21 22:38 31.71466 -116.14837 30970 ft 470 kts 148°
2026-04-21 22:38 31.68860 -116.12514 31236 ft 471 kts 149°
2026-04-21 22:38 31.66233 -116.10215 31568 ft 471 kts 149°
2026-04-21 22:39 31.63601 -116.07917 31931 ft 471 kts 149°
2026-04-21 22:39 31.60982 -116.05619 32275 ft 471 kts 149°
2026-04-21 22:39 31.58387 -116.03332 32519 ft 473 kts 149°
2026-04-21 22:39 31.55469 -116.00750 32832 ft 474 kts 149°
2026-04-21 22:40 31.52841 -115.98416 33122 ft 474 kts 149°
2026-04-21 22:40 31.50212 -115.96078 33346 ft 476 kts 149°
2026-04-21 22:40 31.47571 -115.93733 33604 ft 477 kts 149°
2026-04-21 22:40 31.45822 -115.92180 33790 ft 477 kts 149°
2026-04-21 22:41 31.44762 -115.91240 33908 ft 477 kts 149°
2026-04-21 22:41 31.40253 -115.87242 34386 ft 477 kts 149°
2026-04-21 22:41 31.37599 -115.84891 34648 ft 477 kts 149°
2026-04-21 22:41 31.34993 -115.82585 34963 ft 475 kts 149°
2026-04-21 22:42 31.33220 -115.81017 35217 ft 473 kts 149°
2026-04-21 22:42 31.32949 -115.80777 35264 ft 472 kts 149°
2026-04-21 22:42 31.27729 -115.76167 35704 ft 473 kts 149°
2026-04-21 22:42 31.24218 -115.73073 36058 ft 471 kts 149°
2026-04-21 22:43 31.21613 -115.70777 36376 ft 468 kts 149°
2026-04-21 22:43 31.19016 -115.68487 36597 ft 468 kts 148°
2026-04-21 22:43 31.16413 -115.66197 36786 ft 468 kts 148°
2026-04-21 22:43 31.13814 -115.63911 37032 ft 467 kts 148°
2026-04-21 22:44 31.08587 -115.59323 36963 ft 470 kts 148°
2026-04-21 22:44 31.03404 -115.54773 36940 ft 463 kts 148°
2026-04-21 22:45 30.98315 -115.50313 36946 ft 459 kts 148°
2026-04-21 22:45 30.93220 -115.45856 36946 ft 456 kts 148°
2026-04-21 22:46 30.88156 -115.41432 36952 ft 454 kts 148°
2026-04-21 22:46 30.83115 -115.37032 36953 ft 452 kts 148°
2026-04-21 22:47 30.78157 -115.32647 36949 ft 450 kts 147°
2026-04-21 22:47 30.73264 -115.28114 36944 ft 449 kts 146°
2026-04-21 22:48 30.68399 -115.23583 36942 ft 446 kts 147°
2026-04-21 22:48 30.63555 -115.19101 36962 ft 447 kts 147°
2026-04-21 22:49 30.60073 -115.15894 36967 ft 452 kts 147°
2026-04-21 22:49 30.53627 -115.09975 36984 ft 460 kts 147°
2026-04-21 22:50 30.48924 -115.05660 36992 ft 466 kts 147°
2026-04-21 22:50 30.43805 -115.00969 36985 ft 471 kts 146°
2026-04-21 22:51 30.38671 -114.96266 36978 ft 469 kts 146°
2026-04-21 22:51 30.34482 -114.92432 36968 ft 468 kts 146°
2026-04-21 22:52 30.28645 -114.87103 36983 ft 467 kts 147°
2026-04-21 22:52 30.23567 -114.82477 36984 ft 466 kts 147°
2026-04-21 22:53 30.18357 -114.77735 36993 ft 466 kts 147°
2026-04-21 22:53 30.13223 -114.73066 36999 ft 467 kts 147°
2026-04-21 22:54 30.07867 -114.68203 36991 ft 468 kts 147°
2026-04-21 22:54 30.02628 -114.63454 36990 ft 469 kts 147°
2026-04-21 22:55 29.97486 -114.58799 36991 ft 470 kts 147°
2026-04-21 22:55 29.94074 -114.55715 36990 ft 471 kts 146°
2026-04-21 22:56 29.87302 -114.49599 36993 ft 472 kts 146°
2026-04-21 22:56 29.83006 -114.45725 36995 ft 473 kts 147°
2026-04-21 22:57 29.76692 -114.40039 36989 ft 474 kts 146°
2026-04-21 22:57 29.71510 -114.35378 36993 ft 473 kts 147°
2026-04-21 22:58 29.66345 -114.30742 36992 ft 473 kts 147°
2026-04-21 22:58 29.61159 -114.26089 36992 ft 473 kts 147°
2026-04-21 22:59 29.55963 -114.21435 36991 ft 473 kts 147°
2026-04-21 22:59 29.50779 -114.16798 36985 ft 471 kts 147°
2026-04-21 23:00 29.45612 -114.12183 36995 ft 471 kts 147°
2026-04-21 23:00 29.40467 -114.07594 36989 ft 471 kts 147°
2026-04-21 23:01 29.35290 -114.02981 36987 ft 471 kts 147°
2026-04-21 23:01 29.30113 -113.98375 36997 ft 471 kts 147°
2026-04-21 23:02 29.24939 -113.93780 36998 ft 471 kts 147°
2026-04-21 23:02 29.19759 -113.89182 36994 ft 472 kts 147°
2026-04-21 23:03 29.14565 -113.84578 36994 ft 472 kts 147°
2026-04-21 23:03 29.09403 -113.80008 36996 ft 473 kts 147°
2026-04-21 23:04 29.04191 -113.75402 36991 ft 474 kts 147°
2026-04-21 23:04 28.98967 -113.70788 36996 ft 475 kts 147°
2026-04-21 23:05 28.93732 -113.66171 36997 ft 476 kts 147°
2026-04-21 23:05 28.88522 -113.61580 37002 ft 477 kts 147°
2026-04-21 23:06 28.83275 -113.56961 36988 ft 476 kts 147°
2026-04-21 23:06 28.78030 -113.52350 37004 ft 475 kts 147°
2026-04-21 23:07 28.72794 -113.47754 37004 ft 475 kts 147°
2026-04-21 23:07 28.67588 -113.43191 36995 ft 476 kts 147°
2026-04-21 23:08 28.62347 -113.38602 37001 ft 475 kts 147°
2026-04-21 23:08 28.57104 -113.34017 37006 ft 475 kts 147°
2026-04-21 23:09 28.51859 -113.29436 37001 ft 475 kts 147°
2026-04-21 23:09 28.46650 -113.24892 37006 ft 475 kts 147°
2026-04-21 23:10 28.41414 -113.20332 37002 ft 474 kts 147°
2026-04-21 23:10 28.36177 -113.15777 37011 ft 474 kts 147°
2026-04-21 23:11 28.30940 -113.11227 37009 ft 474 kts 147°
2026-04-21 23:11 28.25727 -113.06704 37014 ft 475 kts 147°
2026-04-21 23:12 28.20472 -113.02151 37018 ft 475 kts 147°
2026-04-21 23:12 28.15214 -112.97599 37016 ft 476 kts 147°
2026-04-21 23:13 28.09949 -112.93048 37015 ft 477 kts 147°
2026-04-21 23:13 28.04699 -112.88515 37013 ft 478 kts 147°
2026-04-21 23:14 27.99414 -112.83958 37024 ft 478 kts 147°
2026-04-21 23:14 27.94114 -112.79395 37017 ft 479 kts 147°
2026-04-21 23:15 27.89704 -112.75602 37023 ft 479 kts 147°
2026-04-21 23:15 27.84393 -112.71037 37029 ft 479 kts 147°
2026-04-21 23:16 27.78224 -112.65743 37025 ft 479 kts 148°
2026-04-21 23:16 27.73805 -112.61957 37030 ft 480 kts 148°
2026-04-21 23:17 27.68484 -112.57405 37027 ft 479 kts 148°
2026-04-21 23:17 27.63169 -112.52860 37029 ft 479 kts 148°
2026-04-21 23:18 27.57849 -112.48318 37020 ft 480 kts 148°
2026-04-21 23:18 27.52528 -112.43778 37018 ft 480 kts 148°
2026-04-21 23:19 27.47235 -112.39271 37022 ft 480 kts 148°
2026-04-21 23:19 27.41903 -112.34734 37010 ft 480 kts 148°
2026-04-21 23:20 27.36578 -112.30209 37022 ft 479 kts 148°
2026-04-21 23:20 27.31219 -112.25766 37012 ft 477 kts 152°
2026-04-21 23:21 27.25608 -112.21852 37027 ft 474 kts 155°
2026-04-21 23:21 27.19978 -112.18085 37018 ft 474 kts 154°
2026-04-21 23:22 27.14332 -112.14246 37024 ft 474 kts 154°
2026-04-21 23:22 27.08701 -112.10372 37032 ft 475 kts 154°
2026-04-21 23:23 27.03067 -112.06488 37029 ft 475 kts 154°
2026-04-21 23:23 26.97474 -112.02639 37026 ft 475 kts 154°
2026-04-21 23:24 26.91848 -111.98776 37030 ft 474 kts 154°
2026-04-21 23:24 26.86215 -111.94912 37024 ft 475 kts 154°
2026-04-21 23:25 26.80585 -111.91054 37028 ft 474 kts 154°
2026-04-21 23:25 26.74954 -111.87199 37044 ft 474 kts 154°
2026-04-21 23:26 26.69321 -111.83348 37032 ft 475 kts 154°
2026-04-21 23:26 26.63680 -111.79496 37041 ft 475 kts 154°
2026-04-21 23:27 26.58037 -111.75645 37039 ft 475 kts 154°
2026-04-21 23:27 26.52431 -111.71824 37043 ft 476 kts 154°
2026-04-21 23:28 26.46781 -111.67977 37027 ft 476 kts 154°
2026-04-21 23:28 26.41130 -111.64132 37044 ft 475 kts 154°
2026-04-21 23:29 26.35483 -111.60292 37032 ft 475 kts 154°
2026-04-21 23:29 26.29844 -111.56467 37041 ft 475 kts 154°
2026-04-21 23:30 26.24232 -111.52662 37035 ft 475 kts 154°
2026-04-21 23:30 26.18588 -111.48841 37041 ft 474 kts 155°
2026-04-21 23:31 26.12953 -111.45029 37034 ft 474 kts 155°
2026-04-21 23:31 26.07309 -111.41214 37031 ft 475 kts 155°
2026-04-21 23:32 26.01667 -111.37407 37041 ft 474 kts 155°
2026-04-21 23:32 25.96291 -111.33092 37029 ft 485 kts 140°
2026-04-21 23:33 25.91655 -111.27620 37035 ft 487 kts 137°
2026-04-21 23:33 25.87056 -111.22081 37033 ft 487 kts 138°
2026-04-21 23:34 25.82431 -111.16598 37036 ft 487 kts 138°
2026-04-21 23:34 25.77759 -111.11121 37042 ft 489 kts 139°
2026-04-21 23:35 25.73073 -111.05643 37034 ft 489 kts 138°
2026-04-21 23:35 25.68400 -111.00182 37034 ft 488 kts 138°
2026-04-21 23:36 25.63721 -110.94720 37033 ft 488 kts 139°
2026-04-21 23:36 25.59074 -110.89304 37039 ft 488 kts 139°
2026-04-21 23:37 25.54404 -110.83864 37033 ft 488 kts 139°
2026-04-21 23:37 25.49725 -110.78423 37038 ft 488 kts 139°
2026-04-21 23:38 25.45043 -110.72982 37034 ft 488 kts 139°
2026-04-21 23:38 25.40237 -110.67407 37038 ft 488 kts 139°
2026-04-21 23:39 25.35539 -110.61960 37037 ft 489 kts 139°
2026-04-21 23:39 25.30876 -110.56559 37034 ft 489 kts 139°
2026-04-21 23:40 25.26169 -110.51118 37039 ft 490 kts 139°
2026-04-21 23:40 25.21424 -110.45639 37034 ft 491 kts 139°
2026-04-21 23:41 25.16703 -110.40191 37043 ft 491 kts 139°
2026-04-21 23:41 25.11943 -110.34705 37037 ft 492 kts 139°
2026-04-21 23:42 25.07044 -110.29062 37036 ft 492 kts 139°
2026-04-21 23:42 25.02299 -110.23606 37037 ft 493 kts 139°
2026-04-21 23:43 24.96317 -110.16738 37033 ft 491 kts 139°
2026-04-21 23:44 24.88895 -110.08235 36547 ft 497 kts 139°
2026-04-21 23:44 24.86993 -110.06058 36071 ft 498 kts 139°
2026-04-21 23:44 24.85722 -110.04603 35711 ft 498 kts 139°
2026-04-21 23:45 24.80901 -109.99084 34171 ft 500 kts 138°
2026-04-21 23:45 24.73631 -109.90776 31655 ft 506 kts 138°
2026-04-21 23:46 24.71853 -109.88744 31181 ft 504 kts 138°
2026-04-21 23:46 24.69285 -109.85814 30530 ft 500 kts 138°
2026-04-21 23:46 24.66894 -109.83088 29917 ft 496 kts 138°
2026-04-21 23:46 24.64023 -109.79820 29179 ft 493 kts 138°
2026-04-21 23:47 24.62449 -109.78029 28782 ft 491 kts 138°
2026-04-21 23:47 24.59608 -109.74796 28051 ft 487 kts 138°
2026-04-21 23:47 24.57265 -109.72131 27437 ft 483 kts 138°
2026-04-21 23:47 24.56041 -109.70739 27126 ft 480 kts 138°
2026-04-21 23:48 24.54349 -109.68816 26683 ft 477 kts 138°
2026-04-21 23:48 24.50383 -109.64315 25654 ft 470 kts 138°
2026-04-21 23:48 24.48101 -109.61727 25065 ft 465 kts 138°
2026-04-21 23:48 24.45889 -109.59219 24477 ft 461 kts 139°
2026-04-21 23:49 24.45693 -109.58996 24426 ft 460 kts 139°
2026-04-21 23:49 24.41900 -109.54700 23413 ft 453 kts 139°
2026-04-21 23:49 24.36725 -109.48843 22048 ft 443 kts 138°
2026-04-21 23:50 24.35312 -109.47246 21677 ft 440 kts 138°
2026-04-21 23:50 24.34118 -109.46008 21370 ft 434 kts 146°
2026-04-21 23:50 24.30242 -109.44029 20595 ft 409 kts 173°
2026-04-21 23:50 24.28396 -109.43737 20204 ft 402 kts 181°
2026-04-21 23:51 24.24438 -109.44196 19417 ft 388 kts 196°
2026-04-21 23:51 24.19587 -109.45476 18399 ft 381 kts 197°
2026-04-21 23:51 24.17023 -109.46171 17863 ft 377 kts 197°
2026-04-21 23:52 24.14485 -109.46848 17334 ft 374 kts 197°
2026-04-21 23:52 24.09462 -109.48153 16284 ft 368 kts 196°
2026-04-21 23:52 24.06507 -109.48910 15661 ft 364 kts 196°
2026-04-21 23:53 24.04056 -109.49535 15188 ft 360 kts 196°
2026-04-21 23:53 24.01661 -109.50144 15052 ft 347 kts 196°
2026-04-21 23:53 23.99186 -109.50772 14996 ft 330 kts 196°
2026-04-21 23:54 23.98327 -109.50991 14991 ft 324 kts 196°
2026-04-21 23:54 23.93208 -109.52293 14977 ft 289 kts 196°
2026-04-21 23:54 23.89668 -109.53247 14802 ft 262 kts 201°
2026-04-21 23:55 23.87981 -109.53855 14480 ft 255 kts 202°
2026-04-21 23:55 23.86153 -109.54549 13996 ft 254 kts 202°
2026-04-21 23:55 23.84491 -109.55183 13525 ft 253 kts 202°
2026-04-21 23:56 23.83070 -109.55721 13081 ft 254 kts 202°
2026-04-21 23:56 23.82025 -109.56116 12637 ft 260 kts 202°
2026-04-21 23:57 23.72277 -109.59750 10524 ft 317 kts 201°
2026-04-21 23:58 23.65611 -109.62201 10034 ft 282 kts 200°
2026-04-21 23:58 23.63799 -109.62869 9905 ft 272 kts 200°
2026-04-21 23:58 23.61370 -109.63764 9268 ft 279 kts 200°
2026-04-21 23:59 23.58376 -109.64868 8401 ft 289 kts 199°
2026-04-21 23:59 23.56444 -109.65579 7712 ft 299 kts 199°
2026-04-21 23:59 23.54432 -109.66318 6941 ft 311 kts 199°
2026-04-21 23:59 23.52363 -109.67078 6355 ft 315 kts 199°
2026-04-22 00:00 23.48264 -109.68586 5547 ft 299 kts 199°
2026-04-22 00:00 23.46762 -109.69139 5258 ft 290 kts 199°
2026-04-22 00:01 23.40714 -109.71360 4164 ft 262 kts 199°
2026-04-22 00:01 23.39025 -109.71982 4031 ft 255 kts 199°
2026-04-22 00:01 23.37274 -109.72621 3996 ft 243 kts 199°
2026-04-22 00:02 23.35740 -109.73183 4019 ft 226 kts 199°
2026-04-22 00:02 23.35252 -109.73362 3982 ft 220 kts 199°